Weather History for Alexandria, Egypt

Change the Weather History Date:

Tuesday, November 20, 2012

  Actual Average Record
Temperature  
Mean Temperature 68 °F -  
Max Temperature 78 °F 67 °F 82 °F (1999)
Min Temperature 59 °F 52 °F 48 °F (2001)
Cooling Degree Days 4    
Growing Degree Days 18 (Base 50)    
Moisture  
Dew Point 60 °F    
Average Humidity 77    
Maximum Humidity 100    
Minimum Humidity 38    
Precipitation  
Precipitation 0.00 in 0.06 in - ()
Sea Level Pressure  
Sea Level Pressure 30.03 in    
Wind  
Wind Speed 1 mph ()    
Max Wind Speed 6 mph    
Max Gust Speed -    
Visibility 4.0 miles    
Events      
Averages and records for this station are not official NWS values.
T = Trace of Precipitation, MM = Missing Value Source: Averaged Metar Reports

Daily Weather History Graph

Daily Weather History Graph

Search for Another Location

Airport:

Trip Planner

Search our weather history database for the weather conditions in past years. The results will help you decide how hot, cold, wet, or windy it might be!

Date:

Astronomy

Nov. 20, 2012 Rise Set
Actual Time 6:31 AM EET 4:59 PM EET
Civil Twilight 6:05 AM EET 5:25 PM EET
Nautical Twilight 5:36 AM EET 5:55 PM EET
Astronomical Twilight 5:07 AM EET 6:24 PM EET
Moon 12:07 PM EET 11:56 PM EET
Length of Visible Light 11h 19m
Length of Day
10h 27m
Waxing Crescent, 48% of the Moon is Illuminated
Nov 20
Waxing Crescent
Nov 20
First Quarter
Nov 28
Full
Dec 6
Last Quarter
Dec 13
New

Hourly Weather History & Observations

Time (EET) Temp. Dew Point Humidity Pressure Visibility Wind Dir Wind Speed Gust Speed Precip Events Conditions
12:00 AM 62.6 °F 60.8 °F 94% 30.04 in - Calm Calm - N/A   Clear
1:00 AM 62.6 °F 59.0 °F 88% 30.04 in - Calm Calm - N/A   Clear
2:00 AM 61 °F 58 °F 88% 30.05 in 4 mi Calm Calm - -   Mist
2:00 AM 60.8 °F 59.0 °F 94% 30.04 in 3.7 mi Calm Calm - N/A   Unknown
3:00 AM 60.8 °F 59.0 °F 94% 30.04 in 3.7 mi Calm Calm - N/A   Unknown
4:00 AM 60.8 °F 59.0 °F 94% 30.04 in 3.7 mi Calm Calm - N/A   Unknown
5:00 AM 59.0 °F 59.0 °F 100% 30.01 in 3.7 mi Calm Calm - N/A   Unknown
6:00 AM 59.0 °F 59.0 °F 100% 30.01 in 2.5 mi Calm Calm - N/A   Mist
7:00 AM 60.8 °F 57.2 °F 88% 30.04 in 3.7 mi Calm Calm - N/A   Unknown
8:00 AM 63 °F 62 °F 95% 30.07 in 4 mi Calm Calm - -   Mist
8:00 AM 62.6 °F 62.6 °F 100% 30.06 in 3.7 mi Calm Calm - N/A   Unknown
9:00 AM 68.0 °F 62.6 °F 83% 30.06 in 3.7 mi Calm Calm - N/A   Unknown
10:00 AM 71.6 °F 62.6 °F 73% 30.06 in 3.7 mi Calm Calm - N/A   Unknown
11:00 AM 73.4 °F 57.2 °F 57% 30.04 in - Calm Calm - N/A   Clear
12:00 PM 77.0 °F 57.2 °F 50% 30.01 in - East 3.5 mph - N/A   Clear
1:00 PM 78.8 °F 59.0 °F 51% 30.01 in - East 3.5 mph - N/A   Clear
2:00 PM 77 °F 56 °F 38% 29.99 in 6 mi ENE 3.5 mph - -  
2:00 PM 77.0 °F 55.4 °F 47% 29.98 in - ENE 3.5 mph - N/A   Clear
3:00 PM 77.0 °F 57.2 °F 50% 29.98 in - North 4.6 mph - N/A   Clear
4:00 PM 73.4 °F 60.8 °F 65% 29.98 in - NE 5.8 mph - N/A   Clear
5:00 PM 71.6 °F 60.8 °F 69% 30.01 in - NE 4.6 mph - N/A   Clear
6:00 PM 69.8 °F 60.8 °F 73% 30.01 in - NE 5.8 mph - N/A   Clear
7:00 PM 69.8 °F 60.8 °F 73% 30.01 in - NE 5.8 mph - N/A   Clear
8:00 PM 69 °F 61 °F 70% 30.01 in 6 mi NE 3.5 mph - -  
8:00 PM 68.0 °F 60.8 °F 78% 30.01 in - NE 3.5 mph - N/A   Clear
9:00 PM 68.0 °F 60.8 °F 78% 30.04 in - East 3.5 mph - N/A   Clear
10:00 PM 66.2 °F 60.8 °F 83% 30.04 in - East 2.3 mph - N/A   Clear
11:00 PM 66.2 °F 60.8 °F 83% 30.04 in - East 1.2 mph - N/A   Clear